[[{"header":{"parameterUnit":"m.s-1","parameterCategory":1,"la1":30.2991,"la2":30.254,"lo1":-89.0895,"lo2":-89.0444,"dy":0.0017,"dx":0.0017,"nx":28,"ny":28,"refTime":"2023-08-17T09:00:00:Z","depth":0,"parameterNumber":2,"parameterNumberName":"U-component_of_WINDS"},"data":[0,0,0,0,0,0,0,0,0,0,0,0,0,0,0,0,0,0,0,0,0,0,0,0,0,0,0,0,0,0,0,0,0,0,0,0,0,0,0,0,0,0,0,0,0,0,0,0,0,0,0,0,0,0,0,0,0,0,3.2302,3.2303,0,3.2355,3.2356,3.2356,3.2307,3.2305,3.2303,3.2301,3.2353,3.2356,3.2359,0,0,0,0,0,0,0,0,0,0,0,0,0,3.2153,3.2156,3.2302,3.2303,3.2303,3.2355,3.2356,3.2357,3.2307,3.2305,3.2302,3.23,3.2352,3.2356,3.236,0,0,0,0,0,0,0,0,0,0,0,0,0,3.2213,3.2157,3.2302,3.2285,3.2284,3.2355,3.2356,3.2357,3.2308,3.2305,3.2302,3.2299,3.2351,3.2355,3.236,3.245,0,0,3.2375,3.2377,0,0,0,0,0,0,0,0,3.221,3.2219,3.2287,3.2286,3.2285,3.2321,3.2322,3.2388,3.2308,3.2299,3.2301,3.2297,3.2345,3.235,3.2366,3.2452,3.2455,3.2375,3.2378,3.238,3.2382,0,0,0,0,0,0,0,3.2206,3.2216,3.2323,3.2288,3.2287,3.2273,3.2278,3.2335,3.2338,3.2299,3.2296,3.2303,3.2344,3.2362,3.2367,3.2455,3.2375,3.238,3.2383,3.2384,3.2613,3.2616,0,0,0,0,0,0,3.2204,3.2213,3.2321,3.2325,3.224,3.2278,3.2284,3.2313,3.2337,3.2338,3.2305,3.23,3.2355,3.2362,3.2369,3.2472,3.238,3.2385,3.2388,3.261,3.2614,3.2617,0,0,0,0,0,0,3.2201,3.2214,3.2319,3.2268,3.228,3.2284,3.2317,3.2315,3.2333,3.2342,3.2341,3.2323,3.2353,3.2362,3.2429,3.2473,3.2387,3.2392,3.2606,3.2611,3.2615,3.268,0,0,0,0,0,0,3.2197,3.2213,3.2249,3.2269,3.2283,3.238,3.2319,3.2319,3.2342,3.2336,3.2359,3.2359,3.2351,3.2422,3.2434,3.2478,3.2395,3.2602,3.2608,3.2614,3.2674,3.2687,3.2698,0,0,0,0,0,3.2192,3.2265,3.2251,3.2264,3.2328,3.2383,3.2391,3.238,3.2346,3.238,3.2385,3.2359,3.2467,3.243,3.2442,3.2489,3.2599,3.2606,3.2613,3.2669,3.2684,3.2697,0,0,0,0,0,0,3.225,3.2268,3.2252,3.2334,3.2357,3.2374,3.2417,3.2398,3.243,3.2423,3.2408,3.2414,3.2484,3.2494,3.2452,3.2574,3.2527,3.2537,3.2565,3.258,3.2591,3.2586,3.2399,0,0,0,0,0,3.2272,3.2317,3.233,3.2401,3.2414,3.2414,3.2438,3.2428,3.2451,3.246,3.247,3.2492,3.253,3.2556,3.2593,3.2677,3.2678,3.2714,3.2726,3.2736,3.2743,3.2784,3.2799,3.264,3.264,3.264,0,0,3.2319,3.2334,3.2363,3.2413,3.243,3.2474,3.2422,3.2472,3.2504,3.2467,3.253,3.2538,3.2562,3.2637,3.267,3.2647,3.2788,3.2745,3.2752,3.2754,3.2793,3.2808,3.2821,3.2645,3.2644,3.2643,0,0,3.2425,3.2443,3.2503,3.252,3.2546,3.2545,3.256,3.2579,3.2583,3.2647,3.2618,3.2656,3.2724,3.2741,3.2758,3.2869,3.2845,3.2882,3.2941,3.2981,3.2993,3.3004,3.304,3.3053,3.289,3.2891,3.2891,0,3.2479,3.2546,3.2536,3.2587,3.2608,3.2577,3.2635,3.2653,3.2689,3.2703,3.2677,3.2759,3.2774,3.285,3.2877,3.2894,3.2907,3.2878,3.2993,3.3004,3.3013,3.3047,3.3061,3.2894,3.2894,3.2894,3.2893,0,3.2609,3.2656,3.2701,3.2735,3.2762,3.2817,3.2813,3.2841,3.2829,3.283,3.2893,3.2909,3.2946,3.2964,3.2954,3.3038,3.3022,3.2995,3.2946,3.3033,3.3064,3.3077,3.29,3.2899,3.2898,3.2897,0,0,3.2753,3.278,3.2796,3.281,3.2836,3.2871,3.2923,3.2959,3.2982,3.3008,3.3049,3.3107,3.308,3.31,3.3091,3.3127,3.3208,3.3094,3.3094,3.3111,3.3298,3.3315,3.3331,3.3193,3.3196,3.3198,3.3294,0,3.2857,3.2947,3.2938,3.3024,3.3064,3.3035,3.308,3.3099,3.3102,3.3135,3.3138,3.3177,3.3142,3.3153,3.3188,3.3191,3.3245,3.3184,3.3228,3.323,3.3219,3.3348,3.3367,3.3457,3.3307,3.3309,3.3311,0,3.299,3.3019,3.3109,3.3125,3.3141,3.3182,3.3213,3.3247,3.3267,3.3266,3.3288,3.3271,3.3321,3.3275,3.3341,3.33,3.3318,3.3322,3.3325,3.3326,3.3273,3.3347,3.3486,3.3498,3.333,3.3329,3.3327,0,3.308,3.3142,3.3203,3.3216,3.3238,3.3266,3.3276,3.3294,3.3316,3.3343,3.3356,3.3389,3.3406,3.3431,3.3423,3.3391,3.349,3.3444,3.3488,3.3488,3.3507,3.3505,3.3646,3.3526,3.3525,3.3525,3.3525,0,3.3194,3.3249,3.3243,3.3279,3.3339,3.3328,3.3386,3.3393,3.3409,3.3444,3.3422,3.3456,3.3446,3.3478,3.3473,3.3526,3.3536,3.3534,3.3531,3.3534,3.3533,3.3542,3.3534,3.3529,3.3528,3.3527,3.3527,0,3.3304,3.3302,3.3365,3.338,3.3385,3.3428,3.344,3.3473,3.3474,3.3519,3.3529,3.353,3.3567,3.3563,3.3605,3.3601,3.3666,3.3658,3.3659,3.3655,3.3698,3.3693,3.3847,3.3865,3.3736,3.3738,3.3739,0,3.3375,3.3416,3.3435,3.3457,3.3469,3.3506,3.3527,3.3518,3.3541,3.3566,3.3595,3.3631,3.3658,3.3719,3.3722,3.3753,3.3743,3.3795,3.3747,3.3747,3.3738,3.3734,3.3736,3.3803,3.3804,3.3805,3.3806,0,3.35,3.3497,3.3529,3.356,3.3586,3.361,3.3632,3.3651,3.3643,3.367,3.3708,3.3729,3.3771,3.3805,3.3834,3.3843,3.3822,3.3822,3.3833,3.3834,3.3831,3.3829,3.368,3.3817,3.3816,3.3815,3.3815,3.3814,3.3589,3.3623,3.364,3.3676,3.3691,3.3711,3.3742,3.3747,3.3778,3.3811,3.3804,3.3845,3.3862,3.3899,3.3911,3.3942,3.3923,3.394,3.3943,3.3947,3.395,3.3829,3.3948,3.3947,3.3947,3.3947,3.3947,0,3.3709,3.3719,3.3752,3.3782,3.3809,3.379,3.3812,3.3835,3.3872,3.389,3.3917,3.3959,3.3991,3.3997,3.4027,3.4051,3.4042,3.4059,3.4055,3.4056,3.3967,3.3953,3.4065,3.4065,3.4065,3.4065,3.4065,3.4065,3.3775,3.3829,3.3827,3.3888,3.3897,3.3937,3.3951,3.3969,3.3983,3.403,3.4057,3.4061,3.4073,3.4104,3.4132,3.4132,3.4143,3.4162,3.4159,3.4075,3.4063,3.4052,3.4037,3.4166,3.4166,3.4244,3.4245,3.4246]},{"header":{"parameterUnit":"m.s-1","parameterCategory":1,"la1":30.2991,"la2":30.254,"lo1":-89.0895,"lo2":-89.0444,"dy":0.0017,"dx":0.0017,"nx":28,"ny":28,"refTime":"2023-08-17T09:00:00:Z","depth":0,"parameterNumber":3,"parameterNumberName":"V-component_of_WINDS"},"data":[0,0,0,0,0,0,0,0,0,0,0,0,0,0,0,0,0,0,0,0,0,0,0,0,0,0,0,0,0,0,0,0,0,0,0,0,0,0,0,0,0,0,0,0,0,0,0,0,0,0,0,0,0,0,0,0,0,0,2.3032,2.3033,0,2.3154,2.3155,2.3157,2.3164,2.3162,2.3161,2.316,2.3284,2.3288,2.3293,0,0,0,0,0,0,0,0,0,0,0,0,0,2.2803,2.2807,2.3032,2.3033,2.3035,2.3154,2.3155,2.3157,2.3164,2.3162,2.3161,2.3159,2.3282,2.3287,2.3293,0,0,0,0,0,0,0,0,0,0,0,0,0,2.2911,2.2808,2.3031,2.3053,2.3056,2.3153,2.3155,2.3157,2.3164,2.3162,2.316,2.3158,2.328,2.3287,2.3294,2.3378,0,0,2.3315,2.3318,0,0,0,0,0,0,0,0,2.2905,2.292,2.3048,2.3051,2.3055,2.3141,2.312,2.3231,2.3165,2.3123,2.316,2.3157,2.3238,2.3248,2.3276,2.3384,2.3389,2.3315,2.332,2.3323,2.3325,0,0,0,0,0,0,0,2.2898,2.2914,2.308,2.305,2.3054,2.3055,2.3068,2.3141,2.3191,2.3127,2.3127,2.3142,2.3239,2.3269,2.3279,2.3391,2.3315,2.3321,2.3326,2.3328,2.3573,2.3575,0,0,0,0,0,0,2.2886,2.2908,2.3076,2.3084,2.2973,2.3061,2.3076,2.3116,2.319,2.3199,2.3143,2.3142,2.3258,2.327,2.3283,2.3385,2.3323,2.3329,2.3333,2.357,2.3573,2.3576,0,0,0,0,0,0,2.2881,2.2901,2.3071,2.2996,2.3018,2.3067,2.3112,2.3119,2.3149,2.3203,2.3211,2.3165,2.3257,2.3273,2.3354,2.339,2.3332,2.3338,2.3568,2.3571,2.3575,2.3592,0,0,0,0,0,0,2.2875,2.2899,2.2933,2.2997,2.3022,2.3141,2.3114,2.3123,2.3161,2.316,2.3225,2.3234,2.3257,2.3344,2.3361,2.3398,2.3344,2.3565,2.3569,2.3573,2.3588,2.3595,2.3601,0,0,0,0,0,2.2867,2.2933,2.2934,2.2954,2.3065,2.3143,2.3157,2.3183,2.3164,2.3197,2.3231,2.3232,2.3383,2.3352,2.3371,2.3411,2.3562,2.3568,2.3573,2.3585,2.3594,2.3601,0,0,0,0,0,0,2.2871,2.2942,2.2944,2.3033,2.3082,2.3144,2.3187,2.3191,2.3247,2.3243,2.3272,2.3287,2.3366,2.3397,2.3361,2.3496,2.3471,2.348,2.3473,2.3482,2.3488,2.3479,2.3349,0,0,0,0,0,2.2883,2.2941,2.2999,2.3072,2.3097,2.3137,2.3173,2.3188,2.324,2.326,2.3301,2.335,2.3409,2.3447,2.3504,2.3592,2.3606,2.3629,2.3636,2.3641,2.3649,2.3696,2.3707,2.3593,2.3593,2.3593,0,0,2.2907,2.2953,2.2988,2.3074,2.3114,2.3173,2.3155,2.3219,2.3262,2.327,2.3349,2.338,2.3437,2.3521,2.3561,2.3549,2.3683,2.3648,2.3652,2.3657,2.3703,2.3713,2.3723,2.3597,2.3596,2.3596,0,0,2.2981,2.3022,2.3087,2.3126,2.3187,2.3213,2.3229,2.329,2.3311,2.339,2.3397,2.3449,2.355,2.359,2.3623,2.3711,2.3713,2.3729,2.3764,2.3809,2.3818,2.3826,2.3856,2.3867,2.3736,2.3736,2.3736,0,2.3004,2.3093,2.3119,2.3182,2.322,2.3229,2.3294,2.3331,2.3407,2.3432,2.3418,2.3544,2.3584,2.3677,2.3698,2.3725,2.3743,2.3721,2.3815,2.3823,2.3831,2.386,2.3872,2.3738,2.3738,2.3737,2.3737,0,2.3117,2.3179,2.3224,2.3297,2.3339,2.3403,2.3437,2.3477,2.3488,2.3515,2.3595,2.3642,2.3709,2.3732,2.3744,2.3826,2.3817,2.3809,2.3784,2.3843,2.3871,2.3882,2.374,2.3739,2.3739,2.3739,0,0,2.3199,2.3284,2.33,2.3332,2.3398,2.3446,2.351,2.3575,2.3607,2.3659,2.3712,2.3796,2.3789,2.3827,2.3843,2.3883,2.3948,2.387,2.3872,2.3882,2.404,2.4045,2.4058,2.3949,2.3952,2.3953,2.4035,0,2.3279,2.3393,2.3417,2.3515,2.3572,2.3581,2.3636,2.3682,2.3709,2.376,2.379,2.3849,2.3835,2.3858,2.3898,2.3931,2.398,2.3926,2.3998,2.4,2.3983,2.4073,2.4079,2.4154,2.4046,2.4048,2.4049,0,2.3389,2.3443,2.3546,2.3603,2.3628,2.3677,2.3738,2.3787,2.3839,2.3856,2.3898,2.3909,2.3974,2.3946,2.4035,2.3998,2.4029,2.405,2.4053,2.406,2.4028,2.4082,2.4178,2.4189,2.4067,2.4065,2.4064,0,2.3437,2.3535,2.3609,2.3636,2.3706,2.3739,2.377,2.382,2.3856,2.3909,2.3933,2.3992,2.4025,2.407,2.4097,2.4074,2.4184,2.4158,2.4198,2.4198,2.4221,2.4219,2.4323,2.4242,2.4242,2.4242,2.4241,0,2.3524,2.3586,2.3631,2.3676,2.3746,2.3773,2.3841,2.3871,2.3915,2.3966,2.3977,2.4024,2.4057,2.4109,2.413,2.42,2.4215,2.4229,2.4234,2.4228,2.4226,2.4248,2.4244,2.4245,2.4244,2.4243,2.4243,0,2.3589,2.3621,2.3702,2.3761,2.3777,2.3826,2.3875,2.3919,2.3946,2.401,2.4026,2.4068,2.413,2.4161,2.4237,2.4251,2.433,2.4332,2.4312,2.4314,2.4352,2.4348,2.4474,2.4491,2.4399,2.44,2.4401,0,2.3642,2.369,2.3754,2.3788,2.3819,2.3875,2.3913,2.394,2.3979,2.4041,2.4077,2.4138,2.4189,2.4286,2.4323,2.4381,2.4384,2.4424,2.4393,2.4385,2.4383,2.438,2.4384,2.443,2.443,2.4431,2.4432,0,2.3733,2.3746,2.38,2.3859,2.3903,2.395,2.3997,2.4025,2.406,2.4102,2.4165,2.4204,2.4282,2.4342,2.4403,2.4433,2.4438,2.4441,2.4454,2.4448,2.4434,2.4441,2.4327,2.4438,2.4438,2.4437,2.4437,2.4437,2.3793,2.3836,2.3886,2.3945,2.3983,2.4027,2.407,2.4102,2.4155,2.422,2.4233,2.4299,2.4348,2.443,2.4462,2.4513,2.4505,2.4523,2.4527,2.4531,2.4532,2.4426,2.4524,2.4524,2.4524,2.4524,2.4524,0,2.3883,2.3916,2.397,2.4035,2.4081,2.4082,2.4133,2.4171,2.4229,2.4275,2.4324,2.4395,2.4454,2.4495,2.4554,2.4587,2.4591,2.4602,2.4599,2.4606,2.4537,2.452,2.4598,2.4598,2.4598,2.4598,2.4598,2.4598,2.3936,2.4007,2.4026,2.4117,2.4149,2.4214,2.4243,2.4282,2.4319,2.4397,2.4446,2.4472,2.4516,2.4578,2.4631,2.4642,2.4663,2.4673,2.4684,2.4619,2.4611,2.4603,2.4588,2.4678,2.4678,2.4748,2.4749,2.4749]}]]